Time,TemperatureF,DewpointF,PressureIn,WindDirection,WindDirectionDegrees,WindSpeedMPH,WindSpeedGustMPH,Humidity,HourlyPrecipIn,Conditions,Clouds,dailyrainin,SoftwareType,DateUTC
2013-02-15 00:05:00,31.6,30.1,29.99,SSW,212,0.0,3.0,94,0.00,,,0.00,Wunderground v.1.15,2013-02-15 05:05:00,
2013-02-15 00:14:00,31.5,30.0,29.99,SSW,212,0.0,0.0,94,0.00,,,0.00,Wunderground v.1.15,2013-02-15 05:14:00,
2013-02-15 00:19:00,31.5,30.0,30.00,SSW,212,0.0,0.0,94,0.00,,,0.00,Wunderground v.1.15,2013-02-15 05:19:00,
2013-02-15 00:24:00,31.4,29.9,30.00,SSW,212,0.0,0.0,94,0.00,,,0.00,Wunderground v.1.15,2013-02-15 05:24:00,
2013-02-15 00:35:00,31.1,29.6,30.00,SSW,212,0.0,0.0,94,0.00,,,0.00,Wunderground v.1.15,2013-02-15 05:35:00,
2013-02-15 00:39:00,31.0,29.5,30.00,SSW,212,0.0,0.0,94,0.00,,,0.00,Wunderground v.1.15,2013-02-15 05:39:00,
2013-02-15 00:44:00,31.0,29.5,30.01,SSW,212,0.0,0.0,94,0.00,,,0.00,Wunderground v.1.15,2013-02-15 05:44:00,
2013-02-15 00:49:00,31.0,29.5,30.01,SSW,212,0.0,0.0,94,0.00,,,0.00,Wunderground v.1.15,2013-02-15 05:49:00,
2013-02-15 00:54:00,30.9,29.4,30.01,SSW,212,0.0,0.0,94,0.00,,,0.00,Wunderground v.1.15,2013-02-15 05:54:00,
2013-02-15 01:00:00,30.9,29.4,30.01,SSW,212,0.0,0.0,94,0.00,,,0.00,Wunderground v.1.15,2013-02-15 06:00:00,
2013-02-15 01:09:00,30.9,29.6,30.01,SSW,212,0.0,0.0,95,0.00,,,0.00,Wunderground v.1.15,2013-02-15 06:09:00,
2013-02-15 01:14:00,30.8,29.3,30.01,SSW,212,0.0,0.0,94,0.00,,,0.00,Wunderground v.1.15,2013-02-15 06:14:00,
2013-02-15 01:20:00,30.8,29.3,30.01,SSW,212,0.0,0.0,94,0.00,,,0.00,Wunderground v.1.15,2013-02-15 06:20:00,
2013-02-15 01:29:00,30.6,29.3,30.01,SSW,212,0.0,0.0,95,0.00,,,0.00,Wunderground v.1.15,2013-02-15 06:29:00,
2013-02-15 01:34:00,30.5,29.2,30.01,SW,225,0.0,0.0,95,0.00,,,0.00,Wunderground v.1.15,2013-02-15 06:34:00,
2013-02-15 01:39:00,30.5,29.0,30.01,SW,225,0.0,0.0,94,0.00,,,0.00,Wunderground v.1.15,2013-02-15 06:39:00,
2013-02-15 01:44:00,30.4,28.9,30.01,SW,225,0.0,0.0,94,0.00,,,0.00,Wunderground v.1.15,2013-02-15 06:44:00,
2013-02-15 01:50:00,30.4,29.1,30.01,SW,225,0.0,0.0,95,0.00,,,0.00,Wunderground v.1.15,2013-02-15 06:50:00,
2013-02-15 01:59:00,30.3,29.0,30.00,SW,225,0.0,0.0,95,0.00,,,0.00,Wunderground v.1.15,2013-02-15 06:59:00,
2013-02-15 02:04:00,30.3,29.0,30.00,SW,225,0.0,0.0,95,0.00,,,0.00,Wunderground v.1.15,2013-02-15 07:04:00,
2013-02-15 02:09:00,30.2,28.9,30.00,SW,225,0.0,0.0,95,0.00,,,0.00,Wunderground v.1.15,2013-02-15 07:09:00,
2013-02-15 02:14:00,30.1,28.8,30.00,SW,225,0.0,0.0,95,0.00,,,0.00,Wunderground v.1.15,2013-02-15 07:14:00,
2013-02-15 02:20:00,30.0,28.7,30.00,SW,225,0.0,0.0,95,0.00,,,0.00,Wunderground v.1.15,2013-02-15 07:20:00,
2013-02-15 02:29:00,29.9,28.6,29.99,SW,225,0.0,0.0,95,0.00,,,0.00,Wunderground v.1.15,2013-02-15 07:29:00,
2013-02-15 02:34:00,29.9,28.6,29.99,SW,225,0.0,0.0,95,0.00,,,0.00,Wunderground v.1.15,2013-02-15 07:34:00,
2013-02-15 02:39:00,29.8,28.5,29.99,SW,225,0.0,0.0,95,0.00,,,0.00,Wunderground v.1.15,2013-02-15 07:39:00,
2013-02-15 02:45:00,29.8,28.5,29.99,SW,225,0.0,0.0,95,0.00,,,0.00,Wunderground v.1.15,2013-02-15 07:45:00,
2013-02-15 02:50:00,29.7,28.4,29.99,SW,225,0.0,0.0,95,0.00,,,0.00,Wunderground v.1.15,2013-02-15 07:50:00,
2013-02-15 02:59:00,29.7,28.4,29.99,SW,225,0.0,0.0,95,0.00,,,0.00,Wunderground v.1.15,2013-02-15 07:59:00,
2013-02-15 03:04:00,29.7,28.4,29.99,SW,225,0.0,0.0,95,0.00,,,0.00,Wunderground v.1.15,2013-02-15 08:04:00,
2013-02-15 03:10:00,29.7,28.4,29.99,SW,225,0.0,0.0,95,0.00,,,0.00,Wunderground v.1.15,2013-02-15 08:10:00,
2013-02-15 03:19:00,29.6,28.3,29.98,SW,225,0.0,1.0,95,0.00,,,0.00,Wunderground v.1.15,2013-02-15 08:19:00,
2013-02-15 03:24:00,29.6,28.3,29.98,SW,225,0.0,1.0,95,0.00,,,0.00,Wunderground v.1.15,2013-02-15 08:24:00,
2013-02-15 03:29:00,29.6,28.3,29.98,SW,225,0.0,0.0,95,0.00,,,0.00,Wunderground v.1.15,2013-02-15 08:29:00,
2013-02-15 03:34:00,29.5,28.2,29.98,SW,225,0.0,0.0,95,0.00,,,0.00,Wunderground v.1.15,2013-02-15 08:34:00,
2013-02-15 03:40:00,29.5,28.2,29.98,SW,225,0.0,0.0,95,0.00,,,0.00,Wunderground v.1.15,2013-02-15 08:40:00,
2013-02-15 03:49:00,29.5,28.2,29.98,SW,225,0.0,0.0,95,0.00,,,0.00,Wunderground v.1.15,2013-02-15 08:49:00,
2013-02-15 03:54:00,29.5,28.2,29.98,SW,225,0.0,0.0,95,0.00,,,0.00,Wunderground v.1.15,2013-02-15 08:54:00,
2013-02-15 03:59:00,29.5,28.2,29.98,SW,225,0.0,0.0,95,0.00,,,0.00,Wunderground v.1.15,2013-02-15 08:59:00,
2013-02-15 04:05:00,29.5,28.2,29.98,SW,225,0.0,0.0,95,0.00,,,0.00,Wunderground v.1.15,2013-02-15 09:05:00,
2013-02-15 04:14:00,29.6,28.6,29.98,SW,225,0.0,2.0,96,0.00,,,0.00,Wunderground v.1.15,2013-02-15 09:14:00,
2013-02-15 04:19:00,29.6,28.6,29.98,SW,225,0.0,0.0,96,0.00,,,0.00,Wunderground v.1.15,2013-02-15 09:19:00,
2013-02-15 04:24:00,29.7,28.7,29.98,SW,225,0.0,0.0,96,0.00,,,0.00,Wunderground v.1.15,2013-02-15 09:24:00,
2013-02-15 04:29:00,29.8,28.8,29.99,SW,225,0.0,0.0,96,0.00,,,0.00,Wunderground v.1.15,2013-02-15 09:29:00,
2013-02-15 04:35:00,29.9,28.9,29.99,SW,225,0.0,0.0,96,0.00,,,0.00,Wunderground v.1.15,2013-02-15 09:35:00,
2013-02-15 04:44:00,29.9,28.9,29.99,SW,225,0.0,0.0,96,0.00,,,0.00,Wunderground v.1.15,2013-02-15 09:44:00,
2013-02-15 04:49:00,29.9,28.9,29.99,SW,225,0.0,0.0,96,0.00,,,0.00,Wunderground v.1.15,2013-02-15 09:49:00,
2013-02-15 04:54:00,30.0,29.0,29.99,SW,225,0.0,0.0,96,0.00,,,0.00,Wunderground v.1.15,2013-02-15 09:54:00,
2013-02-15 05:00:00,30.0,29.0,29.99,SW,225,0.0,0.0,96,0.00,,,0.00,Wunderground v.1.15,2013-02-15 10:00:00,
2013-02-15 05:05:00,30.1,29.1,29.99,SW,225,0.0,0.0,96,0.00,,,0.00,Wunderground v.1.15,2013-02-15 10:05:00,
2013-02-15 05:14:00,30.2,29.2,30.00,SW,225,0.0,0.0,96,0.00,,,0.00,Wunderground v.1.15,2013-02-15 10:14:00,
2013-02-15 05:19:00,30.2,29.2,30.00,SW,225,0.0,0.0,96,0.00,,,0.00,Wunderground v.1.15,2013-02-15 10:19:00,
2013-02-15 05:25:00,30.2,29.2,30.00,SW,225,0.0,0.0,96,0.00,,,0.00,Wunderground v.1.15,2013-02-15 10:25:00,
2013-02-15 05:34:00,30.2,29.2,29.99,SW,225,0.0,0.0,96,0.00,,,0.00,Wunderground v.1.15,2013-02-15 10:34:00,
2013-02-15 05:39:00,30.1,29.1,29.99,SW,225,0.0,0.0,96,0.00,,,0.00,Wunderground v.1.15,2013-02-15 10:39:00,
2013-02-15 05:44:00,30.1,29.1,30.00,SW,225,0.0,0.0,96,0.00,,,0.00,Wunderground v.1.15,2013-02-15 10:44:00,
2013-02-15 05:49:00,30.1,29.1,30.00,SW,225,0.0,0.0,96,0.00,,,0.00,Wunderground v.1.15,2013-02-15 10:49:00,
2013-02-15 05:55:00,30.1,29.1,30.00,SW,225,0.0,0.0,96,0.00,,,0.00,Wunderground v.1.15,2013-02-15 10:55:00,
2013-02-15 06:04:00,30.0,29.0,30.00,SW,225,0.0,0.0,96,0.00,,,0.00,Wunderground v.1.15,2013-02-15 11:04:00,
2013-02-15 06:09:00,30.0,29.0,30.00,SW,225,0.0,0.0,96,0.00,,,0.00,Wunderground v.1.15,2013-02-15 11:09:00,
2013-02-15 06:14:00,30.0,29.0,30.00,SW,225,0.0,0.0,96,0.00,,,0.00,Wunderground v.1.15,2013-02-15 11:14:00,
2013-02-15 06:19:00,29.9,28.9,30.00,SW,225,0.0,0.0,96,0.00,,,0.00,Wunderground v.1.15,2013-02-15 11:19:00,
2013-02-15 06:24:00,29.9,28.9,30.00,SW,225,0.0,0.0,96,0.00,,,0.00,Wunderground v.1.15,2013-02-15 11:24:00,
2013-02-15 06:30:00,29.9,28.9,30.01,SW,225,0.0,0.0,96,0.00,,,0.00,Wunderground v.1.15,2013-02-15 11:30:00,
2013-02-15 06:39:00,29.8,28.8,30.01,SW,225,0.0,0.0,96,0.00,,,0.00,Wunderground v.1.15,2013-02-15 11:39:00,
2013-02-15 06:44:00,29.7,28.7,30.01,SW,225,0.0,0.0,96,0.00,,,0.00,Wunderground v.1.15,2013-02-15 11:44:00,
2013-02-15 06:49:00,29.6,28.6,30.01,SW,225,0.0,0.0,96,0.00,,,0.00,Wunderground v.1.15,2013-02-15 11:49:00,
2013-02-15 06:55:00,29.6,28.6,30.01,SW,225,0.0,0.0,96,0.00,,,0.00,Wunderground v.1.15,2013-02-15 11:55:00,
2013-02-15 07:04:00,29.6,28.6,30.02,SW,225,0.0,0.0,96,0.00,,,0.00,Wunderground v.1.15,2013-02-15 12:04:00,
2013-02-15 07:09:00,29.6,28.6,30.02,SW,225,0.0,0.0,96,0.00,,,0.00,Wunderground v.1.15,2013-02-15 12:09:00,
2013-02-15 07:14:00,29.6,28.6,30.02,SW,225,0.0,0.0,96,0.00,,,0.00,Wunderground v.1.15,2013-02-15 12:14:00,
2013-02-15 07:20:00,29.7,28.7,30.02,SW,225,0.0,0.0,96,0.00,,,0.00,Wunderground v.1.15,2013-02-15 12:20:00,
2013-02-15 07:29:00,29.8,28.8,30.02,SW,225,0.0,0.0,96,0.00,,,0.00,Wunderground v.1.15,2013-02-15 12:29:00,
2013-02-15 07:34:00,29.8,28.8,30.02,SW,225,0.0,0.0,96,0.00,,,0.00,Wunderground v.1.15,2013-02-15 12:34:00,
2013-02-15 07:39:00,29.9,28.9,30.02,SW,225,0.0,0.0,96,0.00,,,0.00,Wunderground v.1.15,2013-02-15 12:39:00,
2013-02-15 07:44:00,29.9,28.9,30.02,SW,225,0.0,0.0,96,0.00,,,0.00,Wunderground v.1.15,2013-02-15 12:44:00,
2013-02-15 07:50:00,29.9,28.9,30.02,SW,225,0.0,0.0,96,0.00,,,0.00,Wunderground v.1.15,2013-02-15 12:50:00,
2013-02-15 07:59:00,30.1,29.1,30.02,SW,225,0.0,0.0,96,0.00,,,0.00,Wunderground v.1.15,2013-02-15 12:59:00,
2013-02-15 08:04:00,30.2,29.2,30.03,SW,225,0.0,0.0,96,0.00,,,0.00,Wunderground v.1.15,2013-02-15 13:04:00,
2013-02-15 08:09:00,30.4,29.4,30.03,SW,225,0.0,0.0,96,0.00,,,0.00,Wunderground v.1.15,2013-02-15 13:09:00,
2013-02-15 08:14:00,30.6,29.9,30.03,SW,225,0.0,1.0,97,0.00,,,0.00,Wunderground v.1.15,2013-02-15 13:14:00,
2013-02-15 08:20:00,30.8,30.0,30.03,SW,225,1.0,1.0,97,0.00,,,0.00,Wunderground v.1.15,2013-02-15 13:20:00,
2013-02-15 08:29:00,31.2,30.4,30.04,WSW,255,1.0,1.0,97,0.00,,,0.00,Wunderground v.1.15,2013-02-15 13:29:00,
2013-02-15 08:34:00,31.4,30.6,30.04,WSW,255,1.0,1.0,97,0.00,,,0.00,Wunderground v.1.15,2013-02-15 13:34:00,
2013-02-15 08:39:00,31.9,31.1,30.04,WNW,288,1.0,2.0,97,0.00,,,0.00,Wunderground v.1.15,2013-02-15 13:39:00,
2013-02-15 08:44:00,32.3,31.5,30.04,WNW,288,1.0,2.0,97,0.00,,,0.00,Wunderground v.1.15,2013-02-15 13:44:00,
2013-02-15 08:50:00,32.8,32.0,30.04,WNW,288,1.0,1.0,97,0.00,,,0.00,Wunderground v.1.15,2013-02-15 13:50:00,
2013-02-15 08:59:00,34.5,33.7,30.03,WNW,288,1.0,1.0,97,0.00,,,0.00,Wunderground v.1.15,2013-02-15 13:59:00,
2013-02-15 09:04:00,35.4,34.9,30.03,WNW,288,1.0,1.0,98,0.00,,,0.00,Wunderground v.1.15,2013-02-15 14:04:00,
2013-02-15 09:09:00,36.5,36.0,30.03,WNW,288,1.0,2.0,98,0.00,,,0.00,Wunderground v.1.15,2013-02-15 14:09:00,
2013-02-15 09:14:00,37.7,37.2,30.03,WNW,288,1.0,2.0,98,0.00,,,0.00,Wunderground v.1.15,2013-02-15 14:14:00,
2013-02-15 09:24:00,40.6,40.1,30.03,NW,305,2.0,3.0,98,0.00,,,0.00,Wunderground v.1.15,2013-02-15 14:24:00,
2013-02-15 09:29:00,42.3,40.1,30.03,NW,305,1.0,1.0,92,0.00,,,0.00,Wunderground v.1.15,2013-02-15 14:29:00,
2013-02-15 09:34:00,43.7,39.8,30.03,NW,305,1.0,2.0,86,0.00,,,0.00,Wunderground v.1.15,2013-02-15 14:34:00,
2013-02-15 09:40:00,44.8,39.6,30.03,NW,305,1.0,1.0,82,0.00,,,0.00,Wunderground v.1.15,2013-02-15 14:40:00,
2013-02-15 09:49:00,47.0,39.1,30.03,WNW,301,1.0,1.0,74,0.00,,,0.00,Wunderground v.1.15,2013-02-15 14:49:00,
2013-02-15 09:54:00,48.0,38.7,30.03,WSW,255,1.0,2.0,70,0.00,,,0.00,Wunderground v.1.15,2013-02-15 14:54:00,
2013-02-15 09:59:00,48.7,39.0,30.03,West,281,2.0,2.0,69,0.00,,,0.00,Wunderground v.1.15,2013-02-15 14:59:00,
2013-02-15 10:04:00,49.3,38.0,30.03,WNW,286,2.0,2.0,65,0.00,,,0.00,Wunderground v.1.15,2013-02-15 15:04:00,
2013-02-15 10:10:00,50.1,38.8,30.03,NW,317,2.0,3.0,65,0.00,,,0.00,Wunderground v.1.15,2013-02-15 15:10:00,
2013-02-15 10:19:00,51.2,37.8,30.02,NW,311,2.0,2.0,60,0.00,,,0.00,Wunderground v.1.15,2013-02-15 15:19:00,
2013-02-15 10:24:00,51.7,38.3,30.02,NW,304,2.0,2.0,60,0.00,,,0.00,Wunderground v.1.15,2013-02-15 15:24:00,
2013-02-15 10:29:00,52.2,39.6,30.02,WNW,302,2.0,3.0,62,0.00,,,0.00,Wunderground v.1.15,2013-02-15 15:29:00,
2013-02-15 10:34:00,52.9,38.1,30.02,WNW,285,2.0,3.0,57,0.00,,,0.00,Wunderground v.1.15,2013-02-15 15:34:00,
2013-02-15 10:40:00,53.3,39.3,30.02,NNW,345,2.0,2.0,59,0.00,,,0.00,Wunderground v.1.15,2013-02-15 15:40:00,
2013-02-15 10:49:00,54.0,37.7,30.01,WNW,296,3.0,4.0,54,0.00,,,0.00,Wunderground v.1.15,2013-02-15 15:49:00,
2013-02-15 10:54:00,54.3,38.0,30.01,NW,307,2.0,4.0,54,0.00,,,0.00,Wunderground v.1.15,2013-02-15 15:54:00,
2013-02-15 10:59:00,54.4,37.6,30.01,WSW,240,2.0,2.0,53,0.00,,,0.00,Wunderground v.1.15,2013-02-15 15:59:00,
2013-02-15 11:05:00,54.4,37.6,30.01,West,261,2.0,2.0,53,0.00,,,0.00,Wunderground v.1.15,2013-02-15 16:05:00,
2013-02-15 11:14:00,55.0,37.7,30.01,West,274,2.0,3.0,52,0.00,,,0.00,Wunderground v.1.15,2013-02-15 16:14:00,
2013-02-15 11:19:00,55.1,37.3,30.01,West,278,2.0,2.0,51,0.00,,,0.00,Wunderground v.1.15,2013-02-15 16:19:00,
2013-02-15 11:24:00,55.1,37.8,30.01,WNW,283,2.0,2.0,52,0.00,,,0.00,Wunderground v.1.15,2013-02-15 16:24:00,
2013-02-15 11:30:00,55.3,37.5,30.00,NNW,345,2.0,2.0,51,0.00,,,0.00,Wunderground v.1.15,2013-02-15 16:30:00,
2013-02-15 11:39:00,56.1,37.7,30.00,NW,321,2.0,2.0,50,0.00,,,0.00,Wunderground v.1.15,2013-02-15 16:39:00,
2013-02-15 11:44:00,56.1,36.7,29.99,NW,308,1.0,2.0,48,0.00,,,0.00,Wunderground v.1.15,2013-02-15 16:44:00,
2013-02-15 11:49:00,56.4,36.9,29.99,NW,309,2.0,2.0,48,0.00,,,0.00,Wunderground v.1.15,2013-02-15 16:49:00,
2013-02-15 11:54:00,57.0,36.4,29.99,West,273,2.0,2.0,46,0.00,,,0.00,Wunderground v.1.15,2013-02-15 16:54:00,
2013-02-15 12:05:00,57.6,35.8,29.99,SSW,194,1.0,1.0,44,0.00,,,0.00,Wunderground v.1.15,2013-02-15 17:05:00,
2013-02-15 12:15:00,58.6,36.2,29.98,NNW,345,2.0,3.0,43,0.00,,,0.00,Wunderground v.1.15,2013-02-15 17:15:00,
2013-02-15 12:24:00,58.5,32.3,29.98,WSW,250,3.0,3.0,37,0.00,,,0.00,Wunderground v.1.15,2013-02-15 17:24:00,
2013-02-15 12:29:00,58.4,34.2,29.98,WSW,243,2.0,2.0,40,0.00,,,0.00,Wunderground v.1.15,2013-02-15 17:29:00,
2013-02-15 12:34:00,58.3,34.7,29.98,NW,316,1.0,2.0,41,0.00,,,0.00,Wunderground v.1.15,2013-02-15 17:34:00,
2013-02-15 12:40:00,58.5,34.2,29.98,SSW,205,2.0,5.0,40,0.00,,,0.00,Wunderground v.1.15,2013-02-15 17:40:00,
2013-02-15 12:49:00,58.4,33.5,29.97,South,191,3.0,3.0,39,0.00,,,0.00,Wunderground v.1.15,2013-02-15 17:49:00,
2013-02-15 12:54:00,58.5,34.9,29.97,NNW,328,2.0,3.0,41,0.00,,,0.00,Wunderground v.1.15,2013-02-15 17:54:00,
2013-02-15 12:59:00,59.0,34.1,29.96,South,188,1.0,2.0,39,0.00,,,0.00,Wunderground v.1.15,2013-02-15 17:59:00,
2013-02-15 13:04:00,59.3,33.7,29.96,NW,323,1.0,2.0,38,0.00,,,0.00,Wunderground v.1.15,2013-02-15 18:04:00,
2013-02-15 13:10:00,59.3,33.7,29.96,NNW,337,3.0,3.0,38,0.00,,,0.00,Wunderground v.1.15,2013-02-15 18:10:00,
2013-02-15 13:19:00,59.4,33.8,29.95,WNW,293,2.0,2.0,38,0.00,,,0.00,Wunderground v.1.15,2013-02-15 18:19:00,
2013-02-15 13:24:00,59.1,34.1,29.95,WSW,244,2.0,2.0,39,0.00,,,0.00,Wunderground v.1.15,2013-02-15 18:24:00,
2013-02-15 13:29:00,58.9,31.3,29.95,SW,235,2.0,5.0,35,0.00,,,0.00,Wunderground v.1.15,2013-02-15 18:29:00,
2013-02-15 13:34:00,58.8,32.6,29.95,WNW,285,2.0,5.0,37,0.00,,,0.00,Wunderground v.1.15,2013-02-15 18:34:00,
2013-02-15 13:44:00,59.3,33.7,29.95,SW,217,1.0,4.0,38,0.00,,,0.00,Wunderground v.1.15,2013-02-15 18:44:00,
2013-02-15 13:49:00,59.2,31.5,29.94,West,274,1.0,2.0,35,0.00,,,0.00,Wunderground v.1.15,2013-02-15 18:49:00,
2013-02-15 13:54:00,59.1,33.5,29.94,WSW,257,2.0,2.0,38,0.00,,,0.00,Wunderground v.1.15,2013-02-15 18:54:00,
2013-02-15 13:59:00,58.9,32.7,29.93,West,264,2.0,2.0,37,0.00,,,0.00,Wunderground v.1.15,2013-02-15 18:59:00,
2013-02-15 14:09:00,59.1,34.1,29.93,South,179,2.0,4.0,39,0.00,,,0.00,Wunderground v.1.15,2013-02-15 19:09:00,
2013-02-15 14:14:00,59.1,32.1,29.92,SW,221,2.0,4.0,36,0.00,,,0.00,Wunderground v.1.15,2013-02-15 19:14:00,
2013-02-15 14:19:00,59.0,32.7,29.92,SW,225,2.0,2.0,37,0.00,,,0.00,Wunderground v.1.15,2013-02-15 19:19:00,
2013-02-15 14:25:00,59.3,33.0,29.92,WNW,297,2.0,2.0,37,0.00,,,0.00,Wunderground v.1.15,2013-02-15 19:25:00,
2013-02-15 14:34:00,59.5,33.2,29.92,NW,306,2.0,3.0,37,0.00,,,0.00,Wunderground v.1.15,2013-02-15 19:34:00,
2013-02-15 14:39:00,59.5,33.9,29.92,WSW,244,2.0,5.0,38,0.00,,,0.00,Wunderground v.1.15,2013-02-15 19:39:00,
2013-02-15 14:44:00,59.5,33.2,29.91,South,174,3.0,5.0,37,0.00,,,0.00,Wunderground v.1.15,2013-02-15 19:44:00,
2013-02-15 14:49:00,59.2,34.2,29.91,South,174,3.0,3.0,39,0.00,,,0.00,Wunderground v.1.15,2013-02-15 19:49:00,
2013-02-15 14:55:00,59.2,32.2,29.91,WNW,301,2.0,3.0,36,0.00,,,0.00,Wunderground v.1.15,2013-02-15 19:55:00,
2013-02-15 15:04:00,59.4,31.7,29.90,SSW,207,2.0,4.0,35,0.00,,,0.00,Wunderground v.1.15,2013-02-15 20:04:00,
2013-02-15 15:09:00,59.3,31.6,29.90,WSW,247,3.0,3.0,35,0.00,,,0.00,Wunderground v.1.15,2013-02-15 20:09:00,
2013-02-15 15:14:00,59.3,31.6,29.90,NNW,345,2.0,3.0,35,0.00,,,0.00,Wunderground v.1.15,2013-02-15 20:14:00,
2013-02-15 15:19:00,59.3,32.3,29.90,South,174,1.0,1.0,36,0.00,,,0.00,Wunderground v.1.15,2013-02-15 20:19:00,
2013-02-15 15:25:00,59.8,33.5,29.90,SW,231,1.0,1.0,37,0.00,,,0.00,Wunderground v.1.15,2013-02-15 20:25:00,
2013-02-15 15:34:00,60.6,30.6,29.89,SW,233,2.0,3.0,32,0.00,,,0.00,Wunderground v.1.15,2013-02-15 20:34:00,
2013-02-15 15:39:00,60.5,30.5,29.89,SW,231,3.0,3.0,32,0.00,,,0.00,Wunderground v.1.15,2013-02-15 20:39:00,
2013-02-15 15:44:00,60.3,30.3,29.88,South,185,2.0,3.0,32,0.00,,,0.00,Wunderground v.1.15,2013-02-15 20:44:00,
2013-02-15 15:49:00,60.4,29.6,29.88,South,174,1.0,1.0,31,0.00,,,0.00,Wunderground v.1.15,2013-02-15 20:49:00,
2013-02-15 15:59:00,60.6,29.0,29.88,WSW,253,2.0,2.0,30,0.00,,,0.00,Wunderground v.1.15,2013-02-15 20:59:00,
2013-02-15 16:04:00,60.8,30.7,29.88,SW,234,2.0,2.0,32,0.00,,,0.00,Wunderground v.1.15,2013-02-15 21:04:00,
2013-02-15 16:09:00,60.9,29.2,29.88,West,278,2.0,2.0,30,0.00,,,0.00,Wunderground v.1.15,2013-02-15 21:09:00,
2013-02-15 16:14:00,61.0,29.3,29.88,WNW,298,2.0,2.0,30,0.00,,,0.00,Wunderground v.1.15,2013-02-15 21:14:00,
2013-02-15 16:24:00,60.8,32.2,29.88,SW,221,1.0,3.0,34,0.00,,,0.00,Wunderground v.1.15,2013-02-15 21:24:00,
2013-02-15 16:29:00,60.4,28.8,29.88,SW,226,1.0,1.0,30,0.00,,,0.00,Wunderground v.1.15,2013-02-15 21:29:00,
2013-02-15 16:34:00,60.1,28.5,29.88,SW,224,1.0,3.0,30,0.00,,,0.00,Wunderground v.1.15,2013-02-15 21:34:00,
2013-02-15 16:39:00,59.7,29.8,29.88,SSW,195,2.0,4.0,32,0.00,,,0.00,Wunderground v.1.15,2013-02-15 21:39:00,
2013-02-15 16:45:00,59.5,29.6,29.88,WSW,252,2.0,4.0,32,0.00,,,0.00,Wunderground v.1.15,2013-02-15 21:45:00,
2013-02-15 16:54:00,59.1,28.5,29.88,WSW,258,2.0,2.0,31,0.00,,,0.00,Wunderground v.1.15,2013-02-15 21:54:00,
2013-02-15 16:59:00,58.7,29.6,29.88,SW,231,2.0,2.0,33,0.00,,,0.00,Wunderground v.1.15,2013-02-15 21:59:00,
2013-02-15 17:04:00,58.5,30.9,29.88,WSW,238,1.0,2.0,35,0.00,,,0.00,Wunderground v.1.15,2013-02-15 22:04:00,
2013-02-15 17:10:00,58.2,29.2,29.88,WSW,243,1.0,2.0,33,0.00,,,0.00,Wunderground v.1.15,2013-02-15 22:10:00,
2013-02-15 17:19:00,57.6,30.1,29.87,SW,231,2.0,2.0,35,0.00,,,0.00,Wunderground v.1.15,2013-02-15 22:19:00,
2013-02-15 17:24:00,57.3,30.5,29.87,SW,236,1.0,2.0,36,0.00,,,0.00,Wunderground v.1.15,2013-02-15 22:24:00,
2013-02-15 17:29:00,56.8,31.4,29.87,SW,236,1.0,2.0,38,0.00,,,0.00,Wunderground v.1.15,2013-02-15 22:29:00,
2013-02-15 17:34:00,56.2,32.8,29.87,South,179,1.0,2.0,41,0.00,,,0.00,Wunderground v.1.15,2013-02-15 22:34:00,
2013-02-15 17:40:00,55.7,29.8,29.87,South,184,1.0,1.0,37,0.00,,,0.00,Wunderground v.1.15,2013-02-15 22:40:00,
2013-02-15 17:49:00,54.9,32.2,29.87,WSW,249,0.0,0.0,42,0.00,,,0.00,Wunderground v.1.15,2013-02-15 22:49:00,
2013-02-15 17:54:00,54.3,32.3,29.87,WSW,249,0.0,0.0,43,0.00,,,0.00,Wunderground v.1.15,2013-02-15 22:54:00,
2013-02-15 17:59:00,53.5,31.5,29.87,WSW,249,0.0,0.0,43,0.00,,,0.00,Wunderground v.1.15,2013-02-15 22:59:00,
2013-02-15 18:05:00,52.9,31.0,29.87,WSW,249,0.0,0.0,43,0.00,,,0.00,Wunderground v.1.15,2013-02-15 23:05:00,
2013-02-15 18:14:00,51.8,33.2,29.87,WSW,249,0.0,0.0,49,0.00,,,0.00,Wunderground v.1.15,2013-02-15 23:14:00,
2013-02-15 18:19:00,51.1,33.1,29.87,WSW,249,0.0,0.0,50,0.00,,,0.00,Wunderground v.1.15,2013-02-15 23:19:00,
2013-02-15 18:24:00,50.5,34.0,29.87,WSW,249,0.0,0.0,53,0.00,,,0.00,Wunderground v.1.15,2013-02-15 23:24:00,
2013-02-15 18:30:00,49.9,33.4,29.87,WSW,249,0.0,0.0,53,0.00,,,0.00,Wunderground v.1.15,2013-02-15 23:30:00,
2013-02-15 18:39:00,48.9,33.9,29.87,WSW,249,0.0,0.0,56,0.00,,,0.00,Wunderground v.1.15,2013-02-15 23:39:00,
2013-02-15 18:44:00,48.4,34.7,29.88,WSW,249,0.0,0.0,59,0.00,,,0.00,Wunderground v.1.15,2013-02-15 23:44:00,
2013-02-15 18:49:00,47.9,35.9,29.88,WSW,249,0.0,0.0,63,0.00,,,0.00,Wunderground v.1.15,2013-02-15 23:49:00,
2013-02-15 18:59:00,46.8,35.6,29.88,WSW,249,0.0,0.0,65,0.00,,,0.00,Wunderground v.1.15,2013-02-15 23:59:00,
2013-02-15 19:04:00,46.3,36.3,29.88,WSW,249,0.0,0.0,68,0.00,,,0.00,Wunderground v.1.15,2013-02-16 00:04:00,
2013-02-15 19:09:00,45.9,36.3,29.88,WSW,249,0.0,0.0,69,0.00,,,0.00,Wunderground v.1.15,2013-02-16 00:09:00,
2013-02-15 19:14:00,45.5,36.6,29.89,WSW,249,0.0,0.0,71,0.00,,,0.00,Wunderground v.1.15,2013-02-16 00:14:00,
2013-02-15 19:24:00,44.5,36.0,29.89,WSW,249,0.0,0.0,72,0.00,,,0.00,Wunderground v.1.15,2013-02-16 00:24:00,
2013-02-15 19:29:00,44.0,36.2,29.89,WSW,249,0.0,0.0,74,0.00,,,0.00,Wunderground v.1.15,2013-02-16 00:29:00,
2013-02-15 19:34:00,43.7,36.3,29.89,WSW,249,0.0,0.0,75,0.00,,,0.00,Wunderground v.1.15,2013-02-16 00:34:00,
2013-02-15 19:39:00,43.4,36.0,29.89,WSW,249,0.0,0.0,75,0.00,,,0.00,Wunderground v.1.15,2013-02-16 00:39:00,
2013-02-15 19:45:00,43.1,35.7,29.89,WSW,249,0.0,0.0,75,0.00,,,0.00,Wunderground v.1.15,2013-02-16 00:45:00,
2013-02-15 19:54:00,42.6,35.9,29.89,WSW,249,0.0,0.0,77,0.00,,,0.00,Wunderground v.1.15,2013-02-16 00:54:00,
2013-02-15 19:59:00,42.3,34.9,29.89,WSW,249,0.0,0.0,75,0.00,,,0.00,Wunderground v.1.15,2013-02-16 00:59:00,
2013-02-15 20:04:00,42.0,34.0,29.89,WSW,249,0.0,0.0,73,0.00,,,0.00,Wunderground v.1.15,2013-02-16 01:04:00,
2013-02-15 20:09:00,41.7,33.7,29.89,WSW,249,0.0,0.0,73,0.00,,,0.00,Wunderground v.1.15,2013-02-16 01:09:00,
2013-02-15 20:15:00,41.5,33.5,29.89,WSW,249,0.0,0.0,73,0.00,,,0.00,Wunderground v.1.15,2013-02-16 01:15:00,
2013-02-15 20:24:00,41.0,34.3,29.89,WSW,249,0.0,0.0,77,0.00,,,0.00,Wunderground v.1.15,2013-02-16 01:24:00,
2013-02-15 20:29:00,40.8,34.5,29.89,WSW,249,0.0,0.0,78,0.00,,,0.00,Wunderground v.1.15,2013-02-16 01:29:00,
2013-02-15 20:34:00,40.6,34.6,29.89,WSW,249,0.0,0.0,79,0.00,,,0.00,Wunderground v.1.15,2013-02-16 01:34:00,
2013-02-15 20:39:00,40.5,34.8,29.89,WSW,249,0.0,0.0,80,0.00,,,0.00,Wunderground v.1.15,2013-02-16 01:39:00,
2013-02-15 20:45:00,40.3,34.6,29.89,WSW,249,0.0,0.0,80,0.00,,,0.00,Wunderground v.1.15,2013-02-16 01:45:00,
2013-02-15 20:54:00,39.9,33.9,29.89,WSW,249,0.0,0.0,79,0.00,,,0.00,Wunderground v.1.15,2013-02-16 01:54:00,
2013-02-15 20:59:00,39.7,33.7,29.89,WSW,249,0.0,0.0,79,0.00,,,0.00,Wunderground v.1.15,2013-02-16 01:59:00,
2013-02-15 21:05:00,39.5,33.2,29.89,WSW,249,0.0,0.0,78,0.00,,,0.00,Wunderground v.1.15,2013-02-16 02:05:00,
2013-02-15 21:14:00,39.1,33.1,29.89,WSW,249,0.0,0.0,79,0.00,,,0.00,Wunderground v.1.15,2013-02-16 02:14:00,
2013-02-15 21:19:00,38.8,32.8,29.88,WSW,249,0.0,0.0,79,0.00,,,0.00,Wunderground v.1.15,2013-02-16 02:19:00,
2013-02-15 21:24:00,38.7,33.1,29.88,WSW,249,0.0,0.0,80,0.00,,,0.00,Wunderground v.1.15,2013-02-16 02:24:00,
2013-02-15 21:29:00,38.5,32.9,29.89,WSW,249,0.0,0.0,80,0.00,,,0.00,Wunderground v.1.15,2013-02-16 02:29:00,
2013-02-15 21:39:00,38.1,32.5,29.89,WSW,249,0.0,0.0,80,0.00,,,0.00,Wunderground v.1.15,2013-02-16 02:39:00,
2013-02-15 21:44:00,38.0,32.4,29.89,WSW,249,0.0,0.0,80,0.00,,,0.00,Wunderground v.1.15,2013-02-16 02:44:00,
2013-02-15 21:49:00,37.8,32.5,29.89,WSW,249,0.0,0.0,81,0.00,,,0.00,Wunderground v.1.15,2013-02-16 02:49:00,
2013-02-15 21:54:00,37.8,32.8,29.89,WSW,249,0.0,0.0,82,0.00,,,0.00,Wunderground v.1.15,2013-02-16 02:54:00,
2013-02-15 22:00:00,37.8,33.1,29.90,NW,321,0.0,0.0,83,0.00,,,0.00,Wunderground v.1.15,2013-02-16 03:00:00,
2013-02-15 22:09:00,38.2,34.1,29.90,NW,323,2.0,4.0,85,0.00,,,0.00,Wunderground v.1.15,2013-02-16 03:09:00,
2013-02-15 22:14:00,40.6,35.5,29.91,NNW,341,3.0,4.0,82,0.00,,,0.00,Wunderground v.1.15,2013-02-16 03:14:00,
2013-02-15 22:19:00,43.2,36.1,29.91,NNW,335,3.0,3.0,76,0.00,,,0.00,Wunderground v.1.15,2013-02-16 03:19:00,
2013-02-15 22:24:00,44.8,37.0,29.91,NNW,345,3.0,4.0,74,0.00,,,0.00,Wunderground v.1.15,2013-02-16 03:24:00,
2013-02-15 22:34:00,46.5,37.6,29.91,NNW,345,3.0,3.0,71,0.00,,,0.00,Wunderground v.1.15,2013-02-16 03:34:00,
2013-02-15 22:39:00,47.0,37.4,29.91,NW,308,3.0,3.0,69,0.00,,,0.00,Wunderground v.1.15,2013-02-16 03:39:00,
2013-02-15 22:44:00,46.9,36.9,29.91,WNW,287,3.0,3.0,68,0.00,,,0.00,Wunderground v.1.15,2013-02-16 03:44:00,
2013-02-15 22:49:00,46.7,36.7,29.91,NW,318,3.0,3.0,68,0.00,,,0.00,Wunderground v.1.15,2013-02-16 03:49:00,
2013-02-15 22:59:00,46.2,35.5,29.91,NNW,345,3.0,3.0,66,0.00,,,0.00,Wunderground v.1.15,2013-02-16 03:59:00,
2013-02-15 23:04:00,46.0,35.7,29.91,NW,314,3.0,3.0,67,0.00,,,0.00,Wunderground v.1.15,2013-02-16 04:04:00,
2013-02-15 23:09:00,45.6,35.3,29.91,NNW,333,2.0,3.0,67,0.00,,,0.00,Wunderground v.1.15,2013-02-16 04:09:00,
2013-02-15 23:14:00,45.3,35.4,29.91,NNW,328,2.0,3.0,68,0.00,,,0.00,Wunderground v.1.15,2013-02-16 04:14:00,
2013-02-15 23:24:00,44.7,35.1,29.91,NW,318,2.0,2.0,69,0.00,,,0.00,Wunderground v.1.15,2013-02-16 04:24:00,
2013-02-15 23:29:00,44.4,34.9,29.91,NW,323,1.0,2.0,69,0.00,,,0.00,Wunderground v.1.15,2013-02-16 04:29:00,
2013-02-15 23:34:00,44.2,35.0,29.91,NNW,328,1.0,2.0,70,0.00,,,0.00,Wunderground v.1.15,2013-02-16 04:34:00,
2013-02-15 23:39:00,44.0,35.2,29.91,NNW,345,1.0,1.0,71,0.00,,,0.00,Wunderground v.1.15,2013-02-16 04:39:00,
2013-02-15 23:44:00,43.7,34.9,29.92,NNW,345,1.0,2.0,71,0.00,,,0.00,Wunderground v.1.15,2013-02-16 04:44:00,
2013-02-15 23:54:00,43.1,34.7,29.92,NNW,345,2.0,2.0,72,0.00,,,0.00,Wunderground v.1.15,2013-02-16 04:54:00,
2013-02-15 23:59:00,42.9,34.8,29.91,NNW,336,2.0,3.0,73,0.00,,,0.00,Wunderground v.1.15,2013-02-16 04:59:00,